Location:  
MeteoStar


Sort by weather type Sort by elevation Sort by visibility Sort from west to east north Sort from north to south Alphabetically Sort from strongest wind speed Sort from lowest to highest pressure Sort from highest to lowest dew point temperature Sort coolest temperatures to warmest Sort warm temperatures to coolest
 Metric

Current Observations for United Kingdom sorted from warmest to coolest

Saint Helena Island16:00ZNot Avail.67 61131017E 10 671427
Stansted Airport15:50ZClear63 3920999.1SE 14 63347
Cambridge15:50ZNot Avail.63 37201000.1SE 11 6349
Hawarden15:50ZClear63 3920998.1ESE 13 6332
Southend-On-Sea 15:50ZNot Avail.63 3620999.1SSE 13 6349
London City Airport15:50ZClear63 366999.1SE 15 6316
Mildenhall Royal Air Force Base15:58ZMostly Cloudy62 40251000.2ESE 14 Gusting to 19 6232
Lakenheath Royal Air Force Base15:58ZMostly Cloudy62 4071000.2ESE 11 Gusting to 19 6232
Gravesend-Broadness16:00ZNot Avail.61 3730999.0SE 12 619
Crosby16:00ZNot Avail.61 3920998.2E 12 Gusting to 22 6126
Marham15:50ZMostly Cloudy61 43131001.1ESE 15 6175
Wattisham15:50ZPartly Cloudy61 39201000.1SE 15 61285
Norwich Weather Centre15:50ZNot Avail.61 41201002.1ESE 17 6145
Prestwick Airport15:50ZClear61 3771002.1ESE 13 6165
West Freugh16:00ZNot Avail.61 42171000E 19 Gusting to 32 6136
Blackpool Airport15:50ZClear61 4120999.1E 18 6132
Liverpool Airport 15:50ZClear61 4318998.1E 16 6185
Rhyl16:00ZNot Avail.60 3925997.7ESE 8 Gusting to 18 60252
Holbeach16:00ZNot Avail.60 43201001ESE 20 Gusting to 29 609
Manston16:00ZNot Avail.60 40251000.5SE 15 60180
Shoeburyness16:00ZNot Avail.59 43251000SSE 11 596
Nottingham Weather Centre16:00ZNot Avail.59 40161000ESE 13 Gusting to 26 59383
Prestwick Rnas16:00ZNot Avail.59 38201001.5ESE 12 5985
Cranwell15:50ZClear59 57131000.1ESE 22 59219
Waddington15:50ZCloudy59 37151001.1ESE 21 59223
Wittering15:50ZMostly Cloudy59 4116999.1ESE 14 59275
Coningsby Royal Air Force Base15:50ZCloudy59 41121001.1E 18 5922
Northolt15:50ZMostly Cloudy59 3725998.1SE 13 59124
Benbecula15:50ZClear59 3671003.1ESE 17 5919
Shawbury15:50ZMostly Cloudy59 3911997.1SE 12 59249
London / Heathrow Airport15:50ZMostly Cloudy59 3920999.1SE 11 5978
Manchester Airport15:50ZClear59 4113999.1E 10 59226
Eglinton / Londonderr15:50ZClear59 4313998.1ESE 18 Gusting to 28 5929
Herstmonceux16:00ZNot Avail.58 3925998.7ESE 8 58170
Bedford16:00ZNot Avail.58 4225999.2ESE 16 Gusting to 25 58278
Keswick16:00ZNot Avail.58 38201000.7ESE 13 Gusting to 28 58265
Saint Bees Head16:00ZNot Avail.58 40251000.2E 16 Gusting to 32 58406
Machrihanish16:00ZNot Avail.58 41151000.4E 19 Gusting to 29 5842
Walney Island16:00ZNot Avail.58 4120999.7E 17 Gusting to 29 5849
Portglenone16:00ZNot Avail.57 4112998.5ESE 16 Gusting to 32 57209
Weybourne16:00ZNot Avail.57 43131002.2ESE 17 Gusting to 26 5768
South Uist Range16:00ZNot Avail.57 40161002.4ESE 23 Gusting to 33 5732
Brize Norton15:50ZCloudy57 3920998.1SE 8 57288
Benson15:50ZMostly Cloudy57 3920998.1ESE 17 57206
Tiree15:50ZNot Avail.57 43121001.1ESE 18 5739
Stornoway15:50ZNot Avail.57 41131005.1ESE 13 5729
East Midlands16:20ZNot Avail.57 419999.1ESE 15 57308
Lydd Airport 15:50ZNot Avail.57 4520999.1ESE 15 579
Biggin Hill 15:50ZClear57 396999.1SE 9 57600
Luton Airport 15:50ZClear57 3718999.2SE 12 57524
Birmingham / Airport15:50ZNot Avail.57 3913998.1ESE 14 57324
Belfast / Harbour15:50ZNot Avail.57 4113999.1E 18 Gusting to 28 5716
Castlederg16:00ZNot Avail.56 4317997.5ESE 11 Gusting to 27 56167
Langdon Bay16:00ZNot Avail.56 42301000.2SSE 13 56383
Kenley16:00ZClear56 3730998.9SE 7 56557
High Wicombe Hqstc16:00ZClear56 3920998.5SSE 12 56669
Church Lawford16:00ZNot Avail.56 4215998.5ESE 11 56351
Shobdon16:00ZNot Avail.56 4016997.7SSE 13 56324
Trawscoed16:00ZNot Avail.56 4330996.4ESE 10 56206
Capel Curig16:00ZClear56 4020997.7ENE 11 56708
Carlisle16:00ZNot Avail.56 42201002.2N 5691
Aultbea16:00ZNot Avail.56 33301004.9ESE 15 Gusting to 25 5636
Lough Fea16:00ZNot Avail.55 4112998.2ESE 16 Gusting to 30 55738
Thorney Island16:00ZNot Avail.55 4816997.7ESE 12 5513
Pershore16:00ZLight Showers55 4417998.7SSE 10 55104
Warcop Range16:00ZNot Avail.55 37151001.2ESE 25 Gusting to 33 55744
Eskdalemuir16:00ZCloudy55 35151003.2ESE 8 Gusting to 20 55793
Dundrennan16:00ZNot Avail.55 43111000.2ENE 25 Gusting to 35 55374
Topcliffe Royal Air Force Base 15:50ZClear55 43151002.1E 19 5591
Linton-On-Ouse15:50ZMostly Cloudy55 4171002.1ESE 18 Gusting to 29 5552
Leeming15:50ZPartly Cloudy55 39101002.1ESE 14 55131
Odiham15:50ZCloudy55 4120998.1ESE 14 55403
Fairford Royal Air Force Base15:58ZCloudy55 4120998SE 10 Gusting to 18 55285
Edinburgh Airport15:50ZClear55 4171005.1E 15 55134
Glasgow Airport15:50ZClear55 4171003.1ENE 18 5526
Valley15:50ZLight Showers55 464997.1E 8 553
Tees-Side15:50ZNot Avail.55 4191003.1E 17 55121
Isle Of Man / Ronaldsway Airport15:50ZNot Avail.55 459998.1ENE 17 5555
Humberside15:50ZNot Avail.55 45201002.1E 21 55101
Farnborough15:50ZClear55 4320998.1ESE 10 55213
London / Gatwick Airport15:50ZLight Rain55 436998.1ESE 6 55203
Staverton Private 15:50ZLight Showers55 4313997.1SE 6 5595
Belfast / Aldergrove Airport15:50ZNot Avail.55 4313999.1ESE 18 55265
Glenanne16:00ZNot Avail.54 4213997.5SE 13 Gusting to 30 50528
Donna Nook16:00ZNot Avail.54 4671002.2E 24 Gusting to 30 4826
Shap16:00ZNot Avail.54 38201002ESE 17 Gusting to 28 49816
Drumalbin16:00ZNot Avail.54 38201003ESE 17 49803
Leconfield15:50ZClear54 4371002.1ESE 12 5019
Middle Wallop15:50ZMostly Cloudy54 4513997.1ESE 12 50298
Inverness / Dalcross15:50ZClear54 3671007.1SE 20 4929
Spadeadam15:50ZClear54 4191002.3E 19 491066
Leeds And Bradford15:50ZClear54 43201001.2E 16 50682
Shoreham Airport15:50ZMostly Cloudy54 486998.1ESE 12 506
Little Rissington16:00ZNot Avail.53 4120997.9SSE 11 49705
Bingley16:00ZNot Avail.53 4281001.0E 13 49859
Spadeadam16:00ZNot Avail.53 4181002.9E 19 Gusting to 28 48935
Wainfleet16:00ZNot Avail.53 4771001.5E 20 Gusting to 28 489
Tain Range16:00ZNot Avail.53 4291007.7E 18 Gusting to 25 4813
Lyneham16:00ZNot Avail.53 4430997.7SE 13 49475
Chivenor16:00ZNot Avail.53 4830996.2SE 9 5026
Saint Catherines Point16:00ZNot Avail.52 492996.9E 15 4752
Lossiemouth15:50ZMostly Cloudy52 36201008.1SE 17 4742
Kinloss15:50ZPartly Cloudy52 37251008.1SE 14 4722
Pembrey Sands15:50ZMostly Cloudy52 4825996.1SE 10 499
Southampton / Weather Centre15:50ZMostly Cloudy52 436997.1ESE 7 5029
Bournemouth Airport15:50ZMostly Cloudy52 486997.1ESE 6 5036
Scilly; Saint MaryS16:00ZNot Avail.52 4320997.9WNW 17 47101
Cardiff-Wales Airport15:50ZCloudy52 4818996.1ESE 11 48219
St Athan Royal Air Force Base15:50ZShowers nearby52 4825996.1ESE 11 48164
Culdrose15:50ZMostly Cloudy52 4125996.2NW 16 47255
Boscombe Down15:50ZMostly Cloudy52 4630997.2ESE 10 49406
Camborne16:00ZCloudy51 4220996.7NW 11 47285
Larkhill16:00ZNot Avail.51 4425997.5ESE 9 48433
Mumbles16:00ZNot Avail.51 4730997.4ESE 14 Gusting to 25 46114
Lake Vyrnwy16:00ZNot Avail.51 3925997.7ESE 12 471181
Charterhall16:00ZNot Avail.51 41131005.7E 13 46367
Strathallan16:00ZNot Avail.51 40151006.4E 11 Gusting to 28 47114
Tulloch Bridge16:00ZNot Avail.51 35191005.7SE 11 Gusting to 26 47777
Loch Glascanoch16:00ZNot Avail.51 35171006.4ESE 16 Gusting to 28 46869
Isle Of Portland16:00ZLight Showers50 492996.4ESE 14 45173
Milford Haven16:00ZNot Avail.50 4530996.2SSE 9 46144
Bridlington Mrsc16:00ZNot Avail.50 4481003.5ESE 26 Gusting to 31 4349
Redesdale16:00ZNot Avail.50 40151005E 18 Gusting to 29 44692
Aviemore16:00ZNot Avail.50 34251006.7ENE 4 49721
Exeter Airport15:50ZMostly Cloudy50 4820996.1ESE 9 4698
Boulmer15:50ZClear50 4371006.1ESE 14 4575
Leuchars15:50ZMostly Cloudy50 4371007.1ESE 19 4439
Dundee / Riverside15:50ZClear50 4371007.1E 18 4413
Newcastle 15:50ZClear50 4391004.2ESE 15 45265
Guernsey Airport15:50ZRain50 503996.2SE 10 46334
Alderney / Channel Island15:50ZLight Rain50 504995.2SE 4 49232
Bristol / Lulsgate 15:50ZCloudy50 4518997.2SE 11 46620
Yeovilton15:50ZCloudy50 4618996.1ESE 10 4675
Aberdaron16:00ZNot Avail.49 474997.9S 10 45311
Fylingdales16:00ZNot Avail.49 408ESE 23 Gusting to 36 42859
Loftus Samos16:00ZNot Avail.49 4381004.2ESE 22 Gusting to 32 42190
Baltasound16:00ZNot Avail.49 40171015.7SE 20 Gusting to 26 4249
Aberporth16:00ZLight Rain49 477996.4SE 15 43436
Plymouth16:00ZShowers49 474996.2SW 8 46164
Sennybridge16:00ZClear48 4330997.4S 8 441007
Aboyne16:00ZNot Avail.48 35151008.5ESE 15 Gusting to 25 42459
Lerwick16:00ZMostly Cloudy48 39151014.7SSE 14 42269
Scatsa / Shetland Island15:50ZClear48 3971014.1SE 22 4172
Aberdeen / Dyce15:50ZClear48 4171009.2SE 15 42213
Wick15:50ZClear48 41151010.2ESE 21 41127
Sumburgh Cape 15:50ZClear48 39121014.1SE 14 4216
Kirkwall Airport15:50ZPartly Cloudy48 41121011.1SE 18 4168
Jersey Airport15:50ZRain48 484996.2SSW 13 43275
Dunkeswell Aerodrome16:00ZRain/Drizzle47 466996.7SE 7 44826
Cardinham16:00ZLight Rain47 462.75996.0W 8 43656
Liscombe16:00ZNot Avail.47 4618996.5SSE 6 441141
Sule Skerry16:00ZNot Avail.47 44141009.0ESE 27 Gusting to 31 3852
Inverbervie16:00ZNot Avail.46 4271008.9E 18 Gusting to 25 39439
Fair Isle16:00ZNot Avail.46 39141013.7ESE 18 Gusting to 26 39187
Glen Ogle16:00ZNot Avail.44 3415ESE 21 Gusting to 36 361850
Great Dun Fell16:00ZNot Avail.42 3715E 39 Gusting to 48 302778
Cairnwell16:00ZNot Avail.36 3025ESE 28 Gusting to 45 233061
Aonach Mor16:00ZNot Avail.35 2730SSE 24 Gusting to 41 233707
Cairngorm16:00ZNot Avail.30 3025ESE 53 Gusting to 69 114084

Atlantic
Tropical Watch